IRIDIUM 28

Satellite information

Favourite Embed

Satellite Type and Status

PAYLOADIN ORBIT

Key statistics

Satellite IRIDIUM 28 at a glance.

Uptime

10317

Days in orbit

Revolutions

≈ 14.4

Per day

Orbit

LEO

Low Earth Orbit

Inclination

86.4

Latest

Satellite identification and parameters

Extended collection of information and parameters for IRIDIUM 28.

Object identification

Identified? True

Debris? False

Object name: IRIDIUM 28

International designator: 1997-051E

Object number (NORAD): 24948

Object ID (CCSDS): 24948

Country: UNITED STATES OF AMERICA (US)

Current information (Y/N): Y

RCS size: LARGE

Orbital parameters

Period: 100.17 minutes

Inclination: 86.3959 deg

SMA: 7144.701 km

Apoapsis: 767.928 km

Periapsis: 765.203 km

RAAN: 66.5636 deg

Eccentricy: 0.0001907

Argument of periapsis: 109.1075 deg

Mean anomaly: 251.033 deg

Mean motion: 14.37562373 rev/day

Mean motion (dot): 0.0000065 rev/day2

B* drag term: 0.00021039698 1/REarth

Two-line elements (TLE)

Creation date: Dec. 12, 2025, 10:14 a.m.

Reference frame: TEME

Reference center: EARTH

Epoch: Dec. 12, 2025, 5:57 a.m. UTC

TLE line 0: 0 IRIDIUM 28

TLE line 1: 1 24948U 97051E 25346.24842351 .00000650 00000-0 21040-3 0 9999

TLE line 2: 2 24948 86.3959 66.5636 0001907 109.1075 251.0330 14.37562373479422

Live tracking on map

Real-time ground track for satellite IRIDIUM 28.

In-orbit conjunctions

A list of the most updated potential collisions computed for object IRIDIUM 28.

Target Orbit TCA Probability of collision Miss distance Type
CZ-6A DEB SSO 2025-10-04 16:52:36 0.001058463 47.0 (m) DEBRIS
CZ-6A DEB SSO 2025-08-17 01:47:54 0.0001881574 889.0 (m) DEBRIS
FENGYUN 1C DEB SSO 2025-04-20 01:01:10 0.0002838781 910.0 (m) DEBRIS
FENGYUN 1C DEB SSO 2025-02-13 03:19:19 0.0003478477 685.0 (m) DEBRIS
COSMOS 1867 COOLANT LEO 2024-12-24 03:12:36 0.0003481297 754.0 (m) DEBRIS

Associated space launch

Iridium provides global mobile telecommunications services using a constellation of 66 low earth orbit satellites in a 86.4° inclined orbit. Although 77 satellites were originally envisioned for the system and spawned the name based on the 77th element in the periodic table, the system has been scaled back. Motorola's Satellite Communications Group designed and manufactured the Iridium satellites with Lockheed Martin providing the LM-700A spacecraft buses.

IRIDIUM 28 was lifted into orbit during the mission ‘Proton-K/17S40 | Iridium 27 to 33’, on board a Proton-K/17S40 space rocket.

The launch took place on Sept. 14, 1997, 1:36 a.m. from 81/23 (81L).

For more information about the launch, click the button.

Launch to space Proton-K/17S40 | Iridium 27 to 33
Proton-K/17S40 | Iridium 27 to 33

Agency: N/A

Status: Launch Successful

Launch date: Sept. 14, 1997, 1:36 a.m. UTC

Rocket: Proton-K/17S40

Launch pad: 81/23 (81L)

Location: Baikonur Cosmodrome, Republic of Kazakhstan

...

Latest news about this satellite

There are no fresh news available about this satellite. Check back as we update our databases every day.


Newsletter sign-up

Weekly statistics, charts and insights to help you stay on top of the space industry.